Location: A�t �Alizem
(31.2076°N, 8.7872°W)
Time: 20:51:11
(UTC+00:00)

N. Korean satellite - Pass Details

Date: 27 September 2021
Orbit: 450 x 495 km, 97.3° (Epoch: 25 October)

Event Time Altitude Azimuth Distance (km) Brightness Sun altitude
Rises 05:46:27 0° 10° (N) 2,538 10.4 -9.4°
Reaches altitude 10° 05:48:30 10° 10° (N) 1,663 9.5 -8.9°
Maximum altitude 05:52:05 85° 282° (WNW) 492 6.5 -8.2°
Drops below altitude 10° 05:55:41 10° 194° (SSW) 1,673 9.1 -7.4°
Sets 05:57:45 0° 193° (SSW) 2,556 10.1 -7.0°
